| time (UTC) | temp C | wind direction | speed KPH | gust KPH | rain 1hr cm | rain 24hr cm | rain mn cm | humidity % | barometer mb |
| 20260906214605 | 30 | 165 | 4.8 | 0.0 | 0.00 | 0.00 | 0.00 | 29 | 1003.8 |
| 20260906213032 | 29 | 143 | 4.8 | 0.0 | 0.00 | 0.00 | 0.00 | 29 | 1003.9 |
| 20260906211605 | 30 | 133 | 4.8 | 0.0 | 0.00 | 0.00 | 0.00 | 28 | 1004.2 |
| 20260906210002 | 30 | 148 | 4.8 | 0.0 | 0.00 | 0.00 | 0.00 | 29 | 1004.1 |
| 20260906204507 | 30 | 161 | 4.8 | 0.0 | 0.00 | 0.00 | 0.00 | 28 | 1004.1 |
| 20260906203027 | 30 | 160 | 3.2 | 0.0 | 0.00 | 0.00 | 0.00 | 28 | 1004.2 |
| 20260906201611 | 29 | 169 | 6.4 | 0.0 | 0.00 | 0.00 | 0.00 | 33 | 1004.4 |
| 20260906200115 | 28 | 139 | 4.8 | 0.0 | 0.00 | 0.00 | 0.00 | 34 | 1004.5 |
| 20260906194522 | 29 | 157 | 3.2 | 0.0 | 0.00 | 0.00 | 0.00 | 34 | 1004.6 |
| 20260906193049 | 28 | 183 | 3.2 | 0.0 | 0.00 | 0.00 | 0.00 | 37 | 1004.9 |
| 20260906191553 | 27 | 144 | 6.4 | 0.0 | 0.00 | 0.00 | 0.00 | 38 | 1005.1 |
| 20260906190121 | 27 | 134 | 8.0 | 0.0 | 0.00 | 0.00 | 0.00 | 38 | 1005.3 |
| 20260906184525 | 27 | 135 | 4.8 | 0.0 | 0.00 | 0.00 | 0.00 | 39 | 1005.4 |
| 20260906183050 | 27 | 141 | 4.8 | 0.0 | 0.00 | 0.00 | 0.00 | 39 | 1005.8 |
| 20260906181512 | 26 | 148 | 8.0 | 0.0 | 0.00 | 0.00 | 0.00 | 40 | 1006.1 |
| 20260906180057 | 27 | 165 | 6.4 | 0.0 | 0.00 | 0.00 | 0.00 | 40 | 1006.4 |
| 20260906174603 | 27 | 144 | 6.4 | 0.0 | 0.00 | 0.00 | 0.00 | 39 | 1006.6 |
| 20260906173014 | 27 | 127 | 4.8 | 0.0 | 0.00 | 0.00 | 0.00 | 38 | 1006.8 |
| 20260906171542 | 27 | 148 | 4.8 | 0.0 | 0.00 | 0.00 | 0.00 | 38 | 1007.0 |
| 20260906170114 | 27 | 142 | 4.8 | 0.0 | 0.00 | 0.00 | 0.00 | 34 | 1007.1 |
| 20260906164610 | 26 | 136 | 4.8 | 0.0 | 0.00 | 0.00 | 0.00 | 31 | 1007.2 |
| 20260906163032 | 26 | 127 | 4.8 | 0.0 | 0.00 | 0.00 | 0.00 | 31 | 1007.2 |
| 20260906161544 | 26 | 98 | 0.0 | 0.0 | 0.00 | 0.00 | 0.00 | 32 | 1007.3 |
| 20260906160106 | 25 | 40 | 0.0 | 0.0 | 0.00 | 0.00 | 0.00 | 32 | 1007.3 |
| 20260906154507 | 22 | 40 | 0.0 | 0.0 | 0.00 | 0.00 | 0.00 | 39 | 1007.2 |
| 20260906153032 | 21 | 40 | 0.0 | 0.0 | 0.00 | 0.00 | 0.00 | 42 | 1007.2 |
| 20260906151551 | 20 | 40 | 0.0 | 0.0 | 0.00 | 0.00 | 0.00 | 45 | 1007.3 |
| 20260906150113 | 18 | 51 | 0.0 | 0.0 | 0.00 | 0.00 | 0.00 | 50 | 1007.6 |
| 20260906144518 | 18 | 53 | 0.0 | 0.0 | 0.00 | 0.00 | 0.00 | 51 | 1007.5 |
| 20260906143047 | 17 | 53 | 0.0 | 0.0 | 0.00 | 0.00 | 0.00 | 56 | 1007.5 |
| 20260906141516 | 16 | 55 | 0.0 | 0.0 | 0.00 | 0.00 | 0.00 | 62 | 1007.3 |
| 20260906140039 | 15 | 55 | 0.0 | 0.0 | 0.00 | 0.00 | 0.00 | 60 | 1007.2 |
| 20260906134547 | 14 | 60 | 0.0 | 0.0 | 0.00 | 0.00 | 0.00 | 61 | 1007.5 |
| 20260906133016 | 14 | 49 | 0.0 | 0.0 | 0.00 | 0.00 | 0.00 | 70 | 1007.3 |
| 20260906131529 | 13 | 40 | 0.0 | 0.0 | 0.00 | 0.00 | 0.00 | 68 | 1007.2 |
| 20260906130058 | 13 | 57 | 4.8 | 0.0 | 0.00 | 0.00 | 0.00 | 72 | 1007.1 |
| 20260906124601 | 13 | 49 | 0.0 | 0.0 | 0.00 | 0.00 | 0.00 | 67 | 1006.9 |
| 20260906123029 | 13 | 39 | 0.0 | 0.0 | 0.00 | 0.00 | 0.00 | 59 | 1007.2 |
| 20260906121545 | 13 | 40 | 0.0 | 0.0 | 0.00 | 0.00 | 0.00 | 59 | 1007.1 |
| 20260906120150 | 14 | 40 | 0.0 | 0.0 | 0.00 | 0.00 | 0.00 | 55 | 1007.0 |
| 20260906114533 | 14 | 42 | 0.0 | 0.0 | 0.00 | 0.00 | 0.00 | 55 | 1007.0 |
| 20260906113059 | 14 | 42 | 0.0 | 0.0 | 0.00 | 0.00 | 0.00 | 55 | 1007.0 |
| 20260906111525 | 14 | 38 | 0.0 | 0.0 | 0.00 | 0.00 | 0.00 | 55 | 1006.9 |
| 20260906110057 | 15 | 37 | 0.0 | 0.0 | 0.00 | 0.00 | 0.00 | 53 | 1006.6 |
| 20260906104522 | 15 | 30 | 0.0 | 0.0 | 0.00 | 0.00 | 0.00 | 52 | 1006.6 |
| 20260906103045 | 15 | 44 | 1.6 | 0.0 | 0.00 | 0.00 | 0.00 | 52 | 1006.4 |
| 20260906101501 | 15 | 32 | 3.2 | 0.0 | 0.00 | 0.00 | 0.00 | 53 | 1006.4 |
| 20260906100018 | 15 | 34 | 1.6 | 0.0 | 0.00 | 0.00 | 0.00 | 53 | 1006.4 |
| 20260906094546 | 15 | 35 | 1.6 | 0.0 | 0.00 | 0.00 | 0.00 | 52 | 1006.4 |
| 20260906093045 | 15 | 46 | 0.0 | 0.0 | 0.00 | 0.00 | 0.00 | 54 | 1006.3 |
| 20260906091510 | 15 | 33 | 1.6 | 0.0 | 0.00 | 0.00 | 0.00 | 52 | 1006.2 |
| 20260906090017 | 15 | 20 | 4.8 | 0.0 | 0.00 | 0.00 | 0.00 | 53 | 1006.0 |
| 20260906084544 | 15 | 28 | 3.2 | 0.0 | 0.00 | 0.00 | 0.00 | 52 | 1006.1 |
| 20260906083055 | 15 | 30 | 0.0 | 0.0 | 0.00 | 0.00 | 0.00 | 53 | 1006.0 |
| 20260906081517 | 15 | 17 | 1.6 | 0.0 | 0.00 | 0.00 | 0.00 | 52 | 1006.2 |
| 20260906080053 | 16 | 46 | 0.0 | 0.0 | 0.00 | 0.00 | 0.00 | 51 | 1006.4 |
| 20260906074553 | 16 | 40 | 0.0 | 0.0 | 0.00 | 0.00 | 0.00 | 51 | 1006.5 |
| 20260906073007 | 16 | 40 | 0.0 | 0.0 | 0.00 | 0.00 | 0.00 | 50 | 1006.6 |
| 20260906071538 | 17 | 40 | 0.0 | 0.0 | 0.00 | 0.00 | 0.00 | 50 | 1006.5 |
| 20260906070110 | 17 | 38 | 0.0 | 0.0 | 0.00 | 0.00 | 0.00 | 47 | 1006.5 |
| 20260906064605 | 17 | 38 | 0.0 | 0.0 | 0.00 | 0.00 | 0.00 | 47 | 1006.3 |
| 20260906063009 | 17 | 38 | 0.0 | 0.0 | 0.00 | 0.00 | 0.00 | 45 | 1006.4 |
| 20260906061532 | 18 | 38 | 0.0 | 0.0 | 0.00 | 0.00 | 0.00 | 44 | 1006.3 |
| 20260906054637 | 17 | 44 | 1.6 | 0.0 | 0.00 | 0.00 | 0.00 | 45 | 1005.9 |
| 20260906053023 | 17 | 17 | 0.0 | 0.0 | 0.00 | 0.00 | 0.00 | 46 | 1005.8 |
| 20260906051546 | 18 | 27 | 0.0 | 0.0 | 0.00 | 0.00 | 0.00 | 45 | 1005.7 |
| 20260906050120 | 18 | 46 | 0.0 | 0.0 | 0.00 | 0.00 | 0.00 | 44 | 1005.6 |
| 20260906044519 | 18 | 64 | 1.6 | 0.0 | 0.00 | 0.00 | 0.00 | 45 | 1005.6 |
| 20260906043047 | 19 | 17 | 1.6 | 0.0 | 0.00 | 0.00 | 0.00 | 44 | 1005.3 |
| 20260906041517 | 19 | 24 | 1.6 | 0.0 | 0.00 | 0.00 | 0.00 | 43 | 1005.3 |
| 20260906040025 | 19 | 5 | 1.6 | 0.0 | 0.00 | 0.00 | 0.00 | 43 | 1005.4 |
| 20260906034536 | 20 | 17 | 4.8 | 0.0 | 0.00 | 0.00 | 0.00 | 43 | 1005.4 |
| 20260906033105 | 20 | 22 | 1.6 | 0.0 | 0.00 | 0.00 | 0.00 | 43 | 1005.4 |
| 20260906031558 | 19 | 11 | 4.8 | 0.0 | 0.00 | 0.00 | 0.00 | 44 | 1005.3 |
| 20260906030050 | 20 | 5 | 3.2 | 0.0 | 0.00 | 0.00 | 0.00 | 43 | 1004.9 |
| 20260906024601 | 20 | 342 | 1.6 | 0.0 | 0.00 | 0.00 | 0.00 | 44 | 1004.9 |
| 20260906023020 | 20 | 29 | 1.6 | 0.0 | 0.00 | 0.00 | 0.00 | 43 | 1004.8 |
| 20260906021550 | 20 | 18 | 0.0 | 0.0 | 0.00 | 0.00 | 0.00 | 44 | 1004.5 |
| 20260906020119 | 20 | 13 | 0.0 | 0.0 | 0.00 | 0.00 | 0.00 | 43 | 1004.4 |
| 20260906014520 | 21 | 360 | 6.4 | 0.0 | 0.00 | 0.00 | 0.00 | 42 | 1004.3 |
| 20260906013049 | 21 | 31 | 1.6 | 0.0 | 0.00 | 0.00 | 0.00 | 41 | 1004.4 |
| 20260906011511 | 21 | 23 | 4.8 | 0.0 | 0.00 | 0.00 | 0.00 | 43 | 1004.4 |
| 20260906010050 | 21 | 322 | 4.8 | 0.0 | 0.00 | 0.00 | 0.00 | 42 | 1004.5 |
| 20260906004526 | 22 | 9 | 1.6 | 0.0 | 0.00 | 0.00 | 0.00 | 41 | 1004.6 |
| 20260906003038 | 22 | 40 | 0.0 | 0.0 | 0.00 | 0.00 | 0.00 | 40 | 1004.6 |
| 20260906001601 | 21 | 23 | 1.6 | 0.0 | 0.00 | 0.00 | 0.00 | 46 | 1005.1 |
| 20260906000123 | 23 | 281 | 9.7 | 0.0 | 0.00 | 0.00 | 0.00 | 39 | 1005.5 |
| 20260905234524 | 23 | 355 | 9.7 | 0.0 | 0.00 | 0.00 | 0.00 | 32 | 1005.5 |
| 20260905233035 | 25 | 11 | 4.8 | 0.0 | 0.00 | 0.00 | 0.00 | 29 | 1005.1 |
| 20260905231603 | 25 | 276 | 1.6 | 0.0 | 0.00 | 0.00 | 0.00 | 28 | 1005.0 |
| 20260905230125 | 27 | 230 | 1.6 | 0.0 | 0.00 | 0.00 | 0.00 | 25 | 1004.2 |
| 20260905224527 | 27 | 111 | 1.6 | 0.0 | 0.00 | 0.00 | 0.00 | 23 | 1003.7 |
| 20260905223036 | 27 | 115 | 3.2 | 0.0 | 0.00 | 0.00 | 0.00 | 23 | 1003.5 |
| 20260905221606 | 28 | 126 | 4.8 | 0.0 | 0.00 | 0.00 | 0.00 | 22 | 1003.4 |
| 20260905220112 | 28 | 107 | 8.0 | 0.0 | 0.00 | 0.00 | 0.00 | 22 | 1003.3 |